Location: Eaton Estates
(41.3089°N, 82.0057°W)
Time: 20:25:32
(UTC+00:00)

Cosmos 2123 Rocket - Pass Details

Date: 19 October 2021
Orbit: 961 x 992 km, 82.9° (Epoch: 03 December)

Event Time Altitude Azimuth Distance (km) Brightness Sun altitude
Rises 01:51:01 0° 335° (NNW) 3,715 7.6 -35.8°
Reaches altitude 10° 01:54:31 10° 316° (NW) 2,759 7.0 -36.4°
Maximum altitude 01:58:14 17° 279° (W) 2,309 6.6 -37.1°
Drops below altitude 10° 02:01:57 10° 243° (WSW) 2,741 6.7 -37.7°
Sets 02:05:26 0° 223° (SW) 3,679 7.2 -38.3°
